This demonstration page uses our WeatherBlox Daily Observations layout. Learn more.

Left ArrowRight Arrow

Hourly Observations for December 2, 2022

Temp ( °F °C ) Dew Point ( °F °C ) Humidity (%) Winds ( mph kmh ) Pressure ( in mb ) Visibility ( mi km ) Precip ( " mm )
12:56 am 00:56 Clear 39 3.9 27 -2.8 62 62 S 21 33 29.66 1004 10 16 0.00 0.00
1:56 am 01:56 Clear 37 2.8 28 -2.2 70 70 S 20 31 29.63 1003 10 16 0.00 0.00
2:56 am 02:56 Clear 36 2.2 28 -2.2 73 73 S 15 24 29.62 1003 10 16 0.00 0.00
3:56 am 03:56 Clear 35 1.7 28 -2.2 75 75 S 15 24 29.59 1002 10 16 0.00 0.00
4:56 am 04:56 Clear 35 1.7 28 -2.2 75 75 SSW 12 19 29.57 1001 10 16 0.00 0.00
5:56 am 05:56 Clear 37 2.8 29 -1.7 72 72 VRB 7 11 29.58 1002 10 16 0.00 0.00
6:56 am 06:56 Clear 35 1.7 29 -1.7 78 78 SW 6 9 29.59 1002 10 16 0.00 0.00
7:56 am 07:56 Sunny 34 1.1 28 -2.2 79 79 WSW 5 7 29.55 1001 10 16 0.00 0.00
8:56 am 08:56 Sunny 36 2.2 30 -1.1 79 79 SW 6 9 29.55 1001 10 16 0.00 0.00
9:56 am 09:56 Sunny 41 5 30 -1.1 65 65 WSW 7 11 29.53 1000 10 16 0.00 0.00
10:56 am 10:56 Sunny 46 7.8 29 -1.7 51 51 WSW 10 17 29.54 1000 10 16 0.00 0.00
11:56 am 11:56 Sunny 49 9.4 30 -1.1 48 48 W 12 19 29.53 1000 10 16 0.00 0.00
12:56 pm 12:56 Sunny 55 12.8 30 -1.1 38 38 NNW 23 37 29.57 1001 10 16 0.00 0.00
1:56 pm 13:56 Sunny 46 7.8 27 -2.8 47 47 NNW 24 39 29.67 1005 10 16 0.00 0.00
2:56 pm 14:56 Sunny 39 3.9 22 -5.6 50 50 NNW 30 48 29.79 1009 10 16 0.00 0.00
3:56 pm 15:56 Sunny 32 0 19 -7.2 58 58 NNW 30 48 29.93 1014 10 16 0.00 0.00
4:56 pm 16:56 Sunny 28 -2.2 16 -8.9 60 60 NNW 30 48 30.02 1017 10 16 0.00 0.00
5:56 pm 17:56 Mostly Clear 25 -3.9 15 -9.4 65 65 NNW 23 37 30.13 1020 10 16 0.00 0.00
6:56 pm 18:56 Mostly Cloudy 24 -4.4 13 -10.6 62 62 NNW 29 46 30.19 1022 10 16 0.00 0.00
7:56 pm 19:56 Clear 22 -5.6 12 -11.1 65 65 NNW 24 39 30.26 1025 10 16 0.00 0.00
8:56 pm 20:56 Clear 20 -6.7 11 -11.7 67 67 NNW 18 30 30.32 1027 10 16 0.00 0.00
9:56 pm 21:56 Clear 18 -7.8 10 -12.2 71 71 NNW 20 31 30.35 1028 10 16 0.00 0.00
10:56 pm 22:56 Clear 18 -7.8 8 -13.3 65 65 N 14 22 30.38 1029 10 16 0.00 0.00
11:56 pm 23:56 Clear 16 -8.9 7 -13.9 67 67 N 13 20 30.41 1030 10 16 0.00 0.00

Powered by AerisWeather